Location: Newark
(0.5300°S, 127.4800°E)
Time: 13:31:01
(UTC+00:00)

S-56A Canister/Altair - Visible Passes

Search period start: 23 September 2019 00:00
Search period end: 03 October 2019 00:00
Orbit: 633 x 2499 km, 38.9° (Epoch: 21 September)

Date Brightness Start Highest point End Pass type
(mag) Time Alt. Az. Time Alt. Az. Time Alt. Az.
23 Sep 8.7 11:29:50 10° WNW 11:35:47 38° SW 11:35:47 38° SW visible
23 Sep 10.9 19:59:11 10° S 20:04:49 18° SE 20:11:48 10° E visible
24 Sep 8.5 10:56:21 10° WNW 11:03:17 51° SW 11:05:31 32° SSE visible
24 Sep 11.0 19:28:01 10° SSE 19:31:48 13° SE 19:36:11 10° ESE visible
25 Sep 8.3 10:22:52 10° NW 10:30:41 67° SW 10:35:15 15° SE visible
25 Sep 10.0 20:54:52 10° SSW 21:03:27 55° SE 21:16:00 10° ENE visible
26 Sep 8.3 09:49:23 10° NW 09:58:00 83° SW 10:03:42 10° SE visible
26 Sep 10.1 20:22:34 10° SSW 20:30:25 45° SE 20:41:52 10° ENE visible
27 Sep 10.2 11:25:45 10° WSW 11:28:46 13° SW 11:31:24 10° SSW visible
27 Sep 10.2 19:50:23 10° SSW 19:57:28 37° SE 20:07:38 10° ENE visible
28 Sep 10.1 10:51:12 10° W 10:56:08 19° SW 11:00:05 10° S visible
28 Sep 10.3 19:18:21 10° SSW 19:24:37 29° SE 19:33:18 10° ENE visible
29 Sep 10.1 10:16:59 10° W 10:23:29 26° SW 10:28:22 10° S visible
29 Sep 10.3 18:48:02 15° S 18:51:49 22° SE 18:58:50 10° E visible
29 Sep 9.1 20:47:55 10° SW 20:56:05 79° NW 21:08:36 10° NE visible
30 Sep 10.0 09:42:54 10° WNW 09:50:49 34° SW 09:56:26 10° SSE visible
30 Sep 10.4 18:17:48 16° SE 18:19:03 17° SE 18:24:07 10° E visible
30 Sep 8.9 20:15:24 10° SW 20:23:01 90° SE 20:34:51 10° NE visible
01 Oct 10.8 17:47:34 11° ESE 17:47:34 11° ESE 17:48:44 10° ESE visible
01 Oct 8.8 19:45:03 23° SW 19:50:04 77° SE 20:01:04 10° NE visible
02 Oct 8.8 19:14:52 44° SSW 19:17:12 64° SE 19:27:16 10° ENE visible
